Content
SEND FEEDBACK

Daily
Averages
Monthly
Summary
United States of America

WILMINGTON, NORTH CAROLINA


Home > North America > United States > North Carolina
Elevation: 72 feet     Latitude: 34 16N     Longitude: 077 54W

WEATHER
 
SELECT A DAY
Number of Records: 209,136;   Date Range: 1/1/95 - 9/20/14
 
SHARE

PRINT THIS DATA

[ ← Previous Day ]
WEATHER ALMANAC - FEBRUARY 21, 2014
[ Next Day → ]
[ °C ]   °F
Weather ElementAverageHighLow
Temperature67.4 °F75.9 °F (9:53 am)55.9 °F (11:25 pm)
Dewpoint62.1 °F66.9 °F (1:46 pm)54 °F (11:25 pm)
Humidity83.6 %93 % (10:53 pm)67 % (9:53 am)
Barometer29.95 in30.04 in (1:53 am)29.84 in (3:30 pm)
Wind Speed12.9 mph23 mph (2:17 pm)
Wind Gust40.3 mph (2:17 pm)
Weather ElementAverage
Visibility9 mi
Wind DirectionSSW (196.4 °)

Weather ElementTotal
Precipitation0.77 in
Cooling Degree Days0.9 (Base 65)
Growing Degree Days15.9 (Base 50)
Averaged from 42 records on February 21, 2014
WEATHER CONDITIONS BREAKOUT
WIND DIRECTION BREAKOUT
WEATHER BY HOUR - FEBRUARY 21, 2014
[ °C ]   °F
Local TimeTemperatureDewpointHumidityBarometerVisibilityWind DirectionWind SpeedGust SpeedPrecipitationEventsConditions
1:53 AM66.0 °F61.0 °F84 %30.04 in10.0 miSouth (170°)11.5 mphPartly Cloudy
2:53 AM66.9 °F61.0 °F81 %30.04 in10.0 miSouth (190°)11.5 mphPartly Cloudy
3:53 AM66.9 °F61.0 °F81 %30.03 in10.0 miSouth (190°)9.2 mphPartly Cloudy
4:53 AM68.0 °F62.1 °F81 %30.03 in10.0 miSouth (180°)12.7 mphMostly Cloudy
5:53 AM68.0 °F62.1 °F81 %30.01 in10.0 miSouth (180°)11.5 mphMostly Cloudy
6:53 AM66.9 °F62.1 °F84 %30.01 in10.0 miSouth (180°)10.4 mphMostly Cloudy
7:53 AM70.0 °F62.1 °F76 %30.00 in10.0 miSouth (180°)13.8 mph23.0 mphMostly Cloudy
8:53 AM73.0 °F63.0 °F71 %30.01 in10.0 miSouth (190°)17.3 mph23.0 mphScattered Clouds
9:53 AM75.9 °F64.0 °F67 %29.98 in10.0 miSouth (190°)16.1 mph28.8 mph0.00 inRainLight Rain
10:21 AM75.9 °F64.0 °F67 %29.98 in10.0 miSSW (200°)17.3 mph28.8 mph0.00 inOvercast
10:53 AM75.0 °F64.9 °F71 %29.97 in10.0 miSSW (200°)20.7 mph31.1 mph0.00 inOvercast
11:53 AM75.0 °F64.9 °F71 %29.95 in10.0 miSSW (200°)20.7 mph28.8 mphOvercast
12:06 PM75.0 °F64.9 °F71 %29.93 in10.0 miSSW (200°)18.4 mph26.5 mphOvercast
12:53 PM75.0 °F66.0 °F73 %29.92 in10.0 miSSW (200°)21.9 mph28.8 mphOvercast
1:46 PM72.0 °F66.9 °F84 %29.87 in1.8 miSSW (200°)19.6 mph33.4 mph0.05 inRainHeavy Rain
1:53 PM72.0 °F66.9 °F84 %29.88 in4.0 miSSW (200°)19.6 mph36.8 mph0.05 inRainLight Rain
1:56 PM72.0 °F66.9 °F84 %29.88 in10.0 miSSW (210°)19.6 mph36.8 mph0.00 inThunderstormThunderstorm
2:02 PM72.0 °F66.9 °F84 %29.88 in1.8 miSSW (210°)20.7 mph33.4 mph0.06 inRain-ThunderstormThunderstorms and Rain
2:17 PM71.1 °F66.0 °F84 %29.89 in3.0 miSW (220°)23.0 mph40.3 mph0.15 inRain-ThunderstormLight Thunderstorms and Rain
2:24 PM70.0 °F64.9 °F84 %29.89 in10.0 miSW (220°)21.9 mph39.1 mph0.15 inRain-ThunderstormLight Rain
2:43 PM69.1 °F64.9 °F87 %29.88 in10.0 miSW (220°)16.1 mph29.9 mph0.15 inOvercast
2:53 PM69.1 °F64.9 °F87 %29.87 in10.0 miSW (220°)17.3 mph23.0 mph0.16 inMostly Cloudy
3:17 PM69.1 °F64.9 °F87 %29.86 in10.0 miSSW (200°)12.7 mph24.2 mphScattered Clouds
3:30 PM69.1 °F64.9 °F87 %29.84 in10.0 miSouth (190°)12.7 mphMostly Cloudy
3:53 PM69.1 °F64.9 °F87 %29.87 in10.0 miSSW (200°)11.5 mphMostly Cloudy
4:13 PM69.1 °F64.9 °F87 %29.89 in10.0 miSSW (210°)9.2 mphPartly Cloudy
4:53 PM68.0 °F64.0 °F87 %29.94 in10.0 miSSW (200°)10.4 mphMostly Cloudy
4:57 PM66.9 °F64.0 °F90 %29.94 in10.0 miSouth (190°)10.4 mphMostly Cloudy
5:04 PM66.9 °F63.0 °F87 %29.94 in10.0 miSSW (200°)12.7 mphOvercast
5:19 PM66.0 °F62.1 °F87 %29.94 in10.0 miSouth (190°)12.7 mphOvercast
5:30 PM66.0 °F61.0 °F84 %29.94 in10.0 miSSW (200°)11.5 mphMostly Cloudy
5:53 PM64.9 °F60.1 °F84 %29.95 in10.0 miSSW (210°)11.5 mphClear
6:53 PM63.0 °F59.0 °F87 %29.95 in10.0 miSW (230°)11.5 mphMostly Cloudy
7:53 PM61.0 °F57.9 °F90 %29.96 in10.0 miSSW (210°)5.8 mphClear
8:36 PM61.0 °F57.9 °F90 %29.98 in10.0 miSW (220°)6.9 mphMostly Cloudy
8:45 PM61.0 °F57.0 °F87 %29.98 in10.0 miSW (220°)8.1 mphScattered Clouds
8:53 PM60.1 °F57.0 °F90 %29.99 in10.0 miSW (220°)5.8 mphPartly Cloudy
9:53 PM59.0 °F55.9 °F90 %30.01 in10.0 miSW (230°)6.9 mphClear
10:53 PM57.9 °F55.9 °F93 %30.01 in9.0 miSW (230°)3.5 mphClear
11:25 PM55.9 °F54.0 °F93 %30.03 in5.0 miNorth (350°)5.8 mphScattered Clouds
11:29 PM57.0 °F55.0 °F93 %30.03 in5.0 miCalmMostly Cloudy
11:53 PM57.0 °F55.0 °F93 %30.04 in7.0 miCalmOvercast
Hourly data recorded from KILM, located miles away from Wilmington, North Carolina







STORIES FROM OUR PARTNERS